Stations météo

réclame
Mon MeteoGroup
Charleville, France (7075): Température de l'air & dewpoint: 20.06.2019 10:00:00 - 26.06.2019 10:00:00 (CEST)Charleville, France (7075): Température de l'air 5cm: 20.06.2019 10:00:00 - 26.06.2019 10:00:00 (CEST)Charleville, France (7075): Température de l'air -20cm & Température de l'air -100cm: 20.06.2019 10:00:00 - 26.06.2019 10:00:00 (CEST)Charleville, France (7075): Vitesse du vent & gusts: 20.06.2019 10:00:00 - 26.06.2019 10:00:00 (CEST)Charleville, France (7075): Direction du vent: 20.06.2019 10:00:00 - 26.06.2019 10:00:00 (CEST)Charleville, France (7075): reduced air pressure: 20.06.2019 10:00:00 - 26.06.2019 10:00:00 (CEST)Charleville, France (7075): visibility: 20.06.2019 10:00:00 - 26.06.2019 10:00:00 (CEST)Charleville, France (7075): Ensoleillement: 20.06.2019 10:00:00 - 26.06.2019 10:00:00 (CEST)Charleville, France (7075): Quantités de précipitations: 20.06.2019 10:00:00 - 26.06.2019 10:00:00 (CEST)
Date & Time tt [°C] td [°C] tt 5cm [°C] tt -20cm [°C] tt -100cm [°C] ff [km/h] ff [knt] fx [km/h] fx [knt] dd ppp [hPa] vv [km] sd [min] rr [mm]
26.06.2019 10:00:00 28,9 21,1 30,5 21,0 15,4 7 4 18 10 NNE 1022,8 20 60 0,0
26.06.2019 09:00:00 26,6 20,7 27,8 21,0 15,4 3 2 6 3 SW 1022,3 20 60 0,0
26.06.2019 08:00:00 22,5 20,4 21,8 21,2 15,4 4 2 6 3 WNW 1022,5 12 60 0,0
26.06.2019 07:00:00 18,7 17,7 16,2 21,3 15,4 0 0 4 2 N 1022,7 12 49 0,0
26.06.2019 06:00:00 17,0 16,4 14,4 21,4 15,3 3 1 4 2 W 1022,6 17 0 0,0
26.06.2019 05:00:00 16,6 16,0 14,6 21,5 15,4 2 1 4 2 ENE 1022,2 0,7 0 0,0
26.06.2019 04:00:00 17,5 16,7 15,5 21,6 15,4 2 1 6 3 WNW 1021,8 16 0 0,0
26.06.2019 03:00:00 17,3 16,2 15,6 21,7 15,4 0 0 7 4 N 1021,5 13 0 0,0
26.06.2019 02:00:00 17,9 16,4 16,2 21,7 15,3 2 1 4 2 SE 1021,2 14 0 0,0
26.06.2019 01:00:00 18,7 17,2 16,9 21,8 15,3 0 0 10 5 N 1021,1 20 0 0,0
26.06.2019 00:00:00 19,7 18,0 17,5 21,8 15,3 2 1 5 3 E 1020,8 20 0 0,0
25.06.2019 23:00:00 21,2 18,2 18,0 21,8 15,3 0 0 5 3 N 1020,2 20 0 0,0
25.06.2019 22:00:00 23,6 19,1 20,0 21,8 15,3 3 1 6 3 SE 1019,3 20 0 0,0
25.06.2019 21:00:00 29,0 20,4 26,1 21,7 15,3 3 1 10 5 WNW 1018,4 20 50 0,0
25.06.2019 20:00:00 31,5 16,7 30,6 21,6 15,3 7 4 19 11 SSW 1018,0 20 60 0,0
25.06.2019 19:00:00 32,1 16,8 31,4 21,4 15,3 11 6 27 15 SSW 1017,7 20 60 0,0
25.06.2019 18:00:00 32,5 17,2 31,9 21,3 15,3 12 7 26 14 S 1017,3 20 60 0,0
25.06.2019 17:00:00 32,5 17,2 34,0 21,1 15,3 12 6 29 15 SSW 1017,0 20 60 0,0
25.06.2019 16:00:00 32,2 18,4 31,4 20,9 15,3 14 7 30 16 S 1016,9 20 48 0,0
25.06.2019 15:00:00 32,0 16,7 36,2 20,7 15,3 17 9 35 19 SSW 1016,8 20 60 0,0
25.06.2019 14:00:00 31,6 19,9 35,8 20,5 15,3 16 8 37 20 S 1016,5 20 60 0,0
25.06.2019 13:00:00 30,8 20,1 33,1 20,4 15,2 16 8 31 17 S 1016,4 20 56 0,0
25.06.2019 12:00:00 29,8 19,2 34,2 20,4 15,3 13 7 24 13 SSE 1016,1 20 60 0,0
25.06.2019 11:00:00 28,4 19,6 31,5 20,4 15,3 14 7 28 15 SSE 1015,9 14 60 0,0
25.06.2019 10:00:00 26,6 19,2 27,6 20,4 15,2 12 7 24 13 SE 1015,9 17 60 0,0
25.06.2019 09:00:00 24,9 18,8 26,3 20,5 15,2 12 7 22 12 ESE 1016,0 16 60 0,0
25.06.2019 08:00:00 22,8 18,6 18,8 20,6 15,2 12 6 19 10 ESE 1015,8 17 52 0,0
25.06.2019 07:00:00 17,2 16,7 15,2 20,7 15,2 3 1 4 2 E 1016,1 14 5 0,0
25.06.2019 06:00:00 16,7 16,2 14,7 20,8 15,2 2 1 4 2 E 1015,8 3,5 0 0,0
25.06.2019 05:00:00 16,8 16,3 14,3 20,9 15,2 4 2 6 3 S 1015,6 10 0 0,0
25.06.2019 04:00:00 16,1 15,5 14,0 21,0 15,2 2 1 4 2 E 1016,1 6 0 0,0
25.06.2019 03:00:00 16,6 15,8 14,4 21,0 15,2 2 1 6 3 SE 1016,1 14 0 0,0
25.06.2019 02:00:00 16,7 15,6 14,3 21,1 15,2 0 0 6 3 N 1016,4 10 0 0,0
25.06.2019 01:00:00 18,4 17,1 15,5 21,2 15,2 4 2 8 4 SSW 1016,2 19 0 0,0
25.06.2019 00:00:00 19,1 17,1 16,8 21,2 15,2 2 1 4 2 SSW 1016,5 10 0 0,0
24.06.2019 23:00:00 21,2 17,6 17,9 21,2 15,2 0 0 5 3 N 1016,5 18 0 0,0
24.06.2019 22:00:00 24,4 18,3 21,5 21,0 15,2 3 2 6 3 NE 1016,0 20 24 0,0
24.06.2019 21:00:00 27,9 20,2 26,6 21,0 15,2 4 2 8 4 E 1015,8 20 60 0,0
24.06.2019 20:00:00 29,6 18,4 28,6 20,8 15,2 7 4 16 8 ESE 1015,7 20 32 0,0
24.06.2019 19:00:00 29,8 15,9 29,6 20,6 15,2 10 5 18 10 ESE 1015,7 17 22 0,0
24.06.2019 18:00:00 31,1 16,3 31,4 20,4 15,1 8 4 20 11 E 1015,8 20 60 0,0
24.06.2019 17:00:00 31,5 17,4 33,9 20,1 15,2 6 4 22 12 E 1016,2 19 60 0,0
24.06.2019 16:00:00 31,5 16,3 35,0 19,9 15,2 8 4 23 12 SSW 1016,2 20 60 0,0
24.06.2019 15:00:00 30,8 17,8 36,2 19,6 15,1 7 4 23 12 E 1016,5 20 60 0,0
24.06.2019 14:00:00 29,6 17,4 35,5 19,5 15,1 13 7 28 15 SE 1016,7 20 60 0,0
24.06.2019 13:00:00 29,3 18,4 34,1 19,4 15,2 18 10 34 19 ESE 1016,5 20 60 0,0
24.06.2019 12:00:00 27,9 18,3 32,9 19,3 15,2 16 8 27 15 ESE 1016,8 20 60 0,0
24.06.2019 11:00:00 26,6 17,9 28,2 19,3 15,1 14 8 25 14 SE 1016,9 6 58 0,0
24.06.2019 10:00:00 24,4 17,4 25,8 19,3 15,1 14 7 27 15 ESE 1017,3 20 48 0,0
24.06.2019 09:00:00 23,1 17,1 24,8 19,4 15,1 17 9 24 13 ESE 1017,6 20 60 0,0
24.06.2019 08:00:00 21,0 16,8 15,2 19,5 15,1 8 4 13 7 SE 1017,6 20 60 0,0
24.06.2019 07:00:00 14,5 13,7 13,6 19,6 15,1 2 1 3 2 ENE 1017,6 16 0 0,0
24.06.2019 06:00:00 14,4 13,9 12,2 19,7 15,1 2 1 4 2 ESE 1017,4 14 0 0,0
24.06.2019 05:00:00 14,0 13,4 11,9 19,8 15,1 0 0 4 2 N 1017,5 12 0 0,0
24.06.2019 04:00:00 14,5 13,5 12,2 19,9 15,1 0 0 3 2 N 1017,6 9 0 0,0
24.06.2019 03:00:00 15,1 14,3 12,3 20,0 15,1 0 0 2 1 N 1017,7 15 0 0,0
24.06.2019 02:00:00 15,6 14,5 13,0 20,0 15,1 2 1 4 2 SSE 1017,6 19 0 0,0
24.06.2019 01:00:00 16,3 14,5 13,3 20,1 15,1 2 1 6 3 ESE 1017,5 20 0 0,0
24.06.2019 00:00:00 17,7 15,0 14,3 20,1 15,1 0 0 9 5 N 1017,1 20 0 0,0
23.06.2019 23:00:00 20,2 15,2 16,4 20,1 15,1 3 2 16 9 E 1016,6 20 0 0,0
23.06.2019 22:00:00 22,5 15,3 20,6 20,0 15,1 11 6 29 15 E 1016,1 20 1 0,0
23.06.2019 21:00:00 25,3 15,6 24,1 20,0 15,1 16 8 27 15 ESE 1015,6 20 16 0,0
23.06.2019 20:00:00 26,6 15,9 26,1 19,9 15,1 14 8 31 17 SE 1015,2 20 35 0,0
23.06.2019 19:00:00 27,7 15,4 27,4 19,8 15,1 20 11 39 21 ESE 1015,0 20 54 0,0
23.06.2019 18:00:00 28,1 15,7 28,2 19,6 15,1 19 10 37 20 ESE 1015,1 20 48 0,0
23.06.2019 17:00:00 28,2 15,8 29,4 19,4 15,1 22 12 36 20 ESE 1015,4 20 38 0,0
23.06.2019 16:00:00 27,6 16,2 - - - 21 11 37 20 ESE 1015,5 20 - 0,0
23.06.2019 15:00:00 28,0 16,0 31,2 18,9 15,1 22 12 38 21 SE 1015,8 20 54 0,0
23.06.2019 14:00:00 28,2 16,1 30,3 18,8 15,1 18 10 36 20 SE 1015,8 20 58 0,0
23.06.2019 13:00:00 27,6 15,3 32,6 18,7 15,1 19 11 38 21 ESE 1015,9 9 60 0,0
23.06.2019 12:00:00 26,8 16,1 31,3 18,6 15,0 15 8 31 17 ESE 1016,1 18 60 0,0
23.06.2019 11:00:00 25,2 15,5 29,1 18,6 15,1 14 7 26 14 SSE 1016,9 1,5 60 0,0
23.06.2019 10:00:00 24,1 16,1 24,7 18,7 15,1 14 8 24 13 ESE 1016,9 16 60 0,0
23.06.2019 09:00:00 21,3 14,9 23,5 18,7 15,0 9 5 16 9 ESE 1017,5 20 60 0,0
23.06.2019 08:00:00 19,0 14,3 17,6 18,9 15,1 3 2 7 4 E 1017,8 20 60 0,0
23.06.2019 07:00:00 14,7 12,9 9,5 19,0 15,1 0 0 5 3 N 1018,1 12 53 0,0
23.06.2019 06:00:00 11,0 10,4 8,7 19,0 15,0 0 0 4 2 N 1018,1 0,3 0 0,0
23.06.2019 05:00:00 11,5 10,2 9,1 19,2 15,1 3 1 5 3 WNW 1018,4 9 0 0,0
23.06.2019 04:00:00 11,8 10,4 9,7 19,2 15,0 0 0 7 4 N 1018,3 12 0 0,0
23.06.2019 03:00:00 12,5 10,7 10,4 19,3 15,0 4 2 11 6 SSE 1018,1 16 0 0,0
23.06.2019 02:00:00 13,7 11,2 11,1 19,4 15,0 2 1 13 7 NW 1018,1 19 0 0,0
23.06.2019 01:00:00 15,0 11,4 12,4 19,5 15,0 3 2 14 8 S 1018,3 20 0 0,0
23.06.2019 00:00:00 15,2 11,8 12,4 19,5 15,0 4 2 12 6 WNW 1018,4 20 0 0,0
22.06.2019 23:00:00 18,2 12,6 14,6 19,5 15,0 6 4 10 5 W 1018,2 20 0 0,0
22.06.2019 22:00:00 19,1 12,8 15,3 19,5 15,0 5 3 13 7 NE 1017,6 20 23 0,0
22.06.2019 21:00:00 22,7 13,2 21,4 19,3 15,0 7 4 22 12 NNE 1017,2 20 60 0,0
22.06.2019 20:00:00 24,0 12,6 23,6 19,2 15,0 10 5 18 10 N 1016,9 20 39 0,0
22.06.2019 19:00:00 24,4 12,4 24,7 19,1 15,0 10 5 20 11 NNE 1016,9 20 38 0,0
22.06.2019 18:00:00 24,7 11,3 23,9 19,0 15,0 12 7 24 13 ENE 1017,0 20 32 0,0
22.06.2019 17:00:00 24,9 12,5 25,8 18,8 15,0 10 5 30 16 NE 1017,4 20 47 0,0
22.06.2019 16:00:00 23,5 11,5 24,9 18,6 15,0 13 7 19 11 N 1018,1 20 0 0,0
22.06.2019 15:00:00 23,6 11,0 25,1 18,4 15,0 9 5 27 15 ENE 1018,2 20 16 0,0
22.06.2019 14:00:00 24,2 10,8 27,5 18,2 15,0 9 5 26 14 N 1018,4 20 58 0,0
22.06.2019 13:00:00 23,7 9,7 28,3 18,1 14,9 14 8 26 14 E 1018,9 18 60 0,0
22.06.2019 12:00:00 22,9 9,3 28,2 18,1 15,0 15 8 26 14 NE 1019,0 20 60 0,0
22.06.2019 11:00:00 21,7 10,8 21,8 18,1 15,0 10 5 21 11 NNE 1019,4 20 56 0,0
22.06.2019 10:00:00 20,0 10,7 21,8 18,2 14,9 8 5 17 9 N 1019,8 20 60 0,0
22.06.2019 09:00:00 18,0 10,8 19,9 18,3 15,0 3 2 9 5 SE 1020,2 20 60 0,0
22.06.2019 08:00:00 14,2 10,6 13,4 18,4 15,0 7 4 10 6 WNW 1020,6 20 60 0,0
22.06.2019 07:00:00 10,9 8,6 8,9 18,5 14,9 2 1 12 6 ENE 1021,2 20 39 0,0
22.06.2019 06:00:00 9,8 7,0 6,9 18,7 15,0 5 3 11 6 W 1021,1 20 0 0,0
22.06.2019 05:00:00 10,6 7,7 7,7 18,8 15,0 5 3 22 12 SE 1021,4 20 0 0,0
22.06.2019 04:00:00 10,8 7,7 7,2 18,9 15,0 5 3 11 6 NW 1021,4 20 0 0,0
22.06.2019 03:00:00 10,4 7,3 7,7 19,0 15,0 4 2 16 8 S 1021,8 20 0 0,0
22.06.2019 02:00:00 12,8 8,5 8,6 19,1 14,9 5 3 19 11 WNW 1021,7 20 0 0,0
22.06.2019 01:00:00 10,6 9,0 7,6 19,2 14,9 6 3 8 4 WNW 1022,0 20 0 0,0
22.06.2019 00:00:00 12,5 9,5 9,9 19,2 14,9 5 3 16 9 WNW 1022,0 20 0 0,0
21.06.2019 23:00:00 14,9 9,7 12,5 19,3 14,9 10 5 14 8 W 1021,6 20 0 0,0
21.06.2019 22:00:00 16,5 9,4 14,7 19,3 14,9 8 4 15 8 WNW 1021,1 20 23 0,0
21.06.2019 21:00:00 18,1 9,7 16,9 19,2 14,9 11 6 24 13 N 1020,3 20 60 0,0
21.06.2019 20:00:00 20,2 8,8 21,0 19,1 14,8 17 9 28 15 NNW 1019,7 20 58 0,0
21.06.2019 19:00:00 21,5 9,4 21,8 19,0 14,8 15 8 26 14 WNW 1019,5 20 55 0,0
21.06.2019 18:00:00 20,8 8,4 21,1 18,8 14,9 12 7 25 13 NW 1019,5 20 46 0,0
21.06.2019 17:00:00 21,2 8,5 23,7 18,6 14,8 11 6 30 16 WNW 1019,5 20 57 0,0
21.06.2019 16:00:00 20,6 8,6 23,0 18,4 14,8 12 6 26 14 W 1020,0 20 49 0,0
21.06.2019 15:00:00 20,5 7,8 23,7 18,3 14,9 11 6 27 14 WNW 1020,1 20 54 0,0
21.06.2019 14:00:00 19,8 8,5 23,0 18,1 14,8 11 6 31 17 NW 1020,2 20 47 0,0
21.06.2019 13:00:00 19,2 8,5 26,8 18,1 14,8 16 9 27 14 WNW 1020,5 20 60 0,0
21.06.2019 12:00:00 18,3 8,5 25,7 18,1 14,8 14 8 25 14 W 1020,4 20 60 0,0
21.06.2019 11:00:00 17,3 8,4 22,4 18,1 14,8 12 6 23 12 W 1020,4 20 60 0,0
21.06.2019 10:00:00 15,8 9,9 18,7 18,2 14,8 9 5 16 8 WNW 1020,4 20 60 0,0
21.06.2019 09:00:00 14,8 9,6 17,1 18,3 14,8 2 1 6 4 NNE 1020,3 20 60 0,0
21.06.2019 08:00:00 12,4 9,9 11,1 18,4 14,8 3 1 5 3 N 1020,4 20 60 0,0
21.06.2019 07:00:00 8,9 8,6 3,9 18,6 14,8 0 0 3 2 N 1020,2 13 55 0,0
21.06.2019 06:00:00 6,7 6,3 3,2 18,7 14,8 3 1 10 5 W 1020,1 1,0 0 0,0
21.06.2019 05:00:00 7,0 6,4 3,9 18,9 14,8 2 1 4 2 WSW 1019,6 20 0 0,0
21.06.2019 04:00:00 7,4 6,7 5,2 19,0 14,8 0 0 11 6 N 1019,5 1,3 0 0,0
21.06.2019 03:00:00 8,5 7,9 5,5 19,2 14,8 8 4 9 5 WNW 1019,2 18 0 0,0
21.06.2019 02:00:00 8,9 8,3 4,8 19,3 14,8 3 2 5 3 W 1019,1 20 0 0,0
21.06.2019 01:00:00 9,3 8,4 5,8 19,3 14,7 3 2 9 5 W 1018,8 19 0 0,0
21.06.2019 00:00:00 10,5 9,4 6,4 19,4 14,7 0 0 6 3 N 1018,4 0,6 0 0,0
20.06.2019 23:00:00 12,7 10,2 8,0 19,5 14,7 2 1 6 4 WNW 1017,5 20 0 0,0
20.06.2019 22:00:00 15,7 11,3 12,2 19,5 14,7 4 2 18 10 W 1016,7 20 15 0,0
20.06.2019 21:00:00 17,8 11,6 17,3 19,5 14,7 10 5 27 14 WNW 1016,1 20 26 0,0
20.06.2019 20:00:00 18,8 11,8 19,2 19,4 14,7 13 7 23 13 W 1015,4 20 0 0,0
20.06.2019 19:00:00 19,6 12,4 20,7 19,4 14,7 13 7 29 16 WNW 1014,8 20 4 0,0
20.06.2019 18:00:00 20,1 12,3 21,0 19,3 14,7 16 9 37 20 W 1014,5 20 53 0,0
20.06.2019 17:00:00 20,9 13,1 22,2 19,3 14,7 24 13 40 22 WNW 1014,3 20 49 0,0
20.06.2019 16:00:00 21,0 13,9 22,8 19,2 14,7 16 8 31 17 W 1014,1 20 37 0,0
20.06.2019 15:00:00 19,1 13,9 19,5 19,2 14,7 13 7 28 15 W 1014,3 20 1 0,0
20.06.2019 14:00:00 17,8 13,7 18,2 19,2 14,7 18 10 29 15 W 1014,2 20 0 0,0
20.06.2019 13:00:00 17,7 14,8 17,2 19,3 14,6 9 5 18 10 W 1013,8 20 14 0,0
20.06.2019 12:00:00 15,5 14,7 15,1 19,3 14,6 7 4 17 9 NW 1013,5 11 0 0,0
20.06.2019 11:00:00 15,0 14,2 15,3 19,4 14,7 11 6 22 12 NW 1013,4 4,7 0 0,6
20.06.2019 10:00:00 16,1 14,8 16,6 19,4 14,6 8 4 14 8 WNW 1013,0 8 0 0,2

tt = Température de l'air
td = dewpoint
tt 5cm = Température de l'air 5cm
tt -20cm = Température de l'air -20cm
tt -100cm = Température de l'air -100cm
ff = Vitesse du vent
fx = gusts
dd = Direction du vent
ppp = reduced air pressure
vv = visibility
sd = Ensoleillement
rr = Quantités de précipitations

stations d'obs. à proximité